Location: Vanderbilt Beach
(26.2700°N, 81.7900°W)
Time: 20:02:17
(UTC-04:00)

Envisat - Pass Details

Date: 16 June 2021
Orbit: 764 x 766 km, 98.2° (Epoch: 02 August)

Event Time Altitude Azimuth Distance (km) Brightness Sun altitude
Rises 06:00:21 0° 26° (NNE) 3,230 7.3 -7.6°
Reaches altitude 10° 06:02:56 10° 37° (NE) 2,301 6.8 -7.1°
Maximum altitude 06:07:20 30° 98° (E) 1,355 5.0 -6.2°
Drops below altitude 10° 06:11:43 10° 158° (SSE) 2,291 5.4 -5.4°
Sets 06:14:16 0° 169° (S) 3,213 6.0 -4.9°
